Location: Bonneuil
(46.1010°N, 2.9693°E)
Time: 00:12:09
(UTC+00:00)

ISS - Pass Details

Date: 10 March 2021
Orbit: 418 x 422 km, 51.6° (Epoch: 10 April)

Event Time Altitude Azimuth Distance (km) Brightness Sun altitude
Exits shadow 04:45:33 35° 281° (W) 702 -3.1 -15.5°
Maximum altitude 04:46:46 64° 212° (SSW) 468 -3.8 -15.3°
Drops below altitude 10° 04:50:05 10° 130° (SE) 1,493 -0.4 -14.7°
Sets 04:52:11 0° 128° (SE) 2,354 0.7 -14.3°
